Regional Weather Roundup
Issued by NWS

Home | Current Version | Previous Version | Graphics & Text | Print | Product List | Glossary On
Versions: 1 2 3 4 5 6 7 8 9 10 11 12 13 14 15 16 17 18 19 20 21 22 23 24 25 26 27 28 29 30 31 32 33 34 35 36 37 38 39 40 41 42 43 44 45 46 47 48 49 50
000
ASUS43 KIND 180709
RWRIN

WEATHER ROUNDUP FOR INDIANA
NATIONAL WEATHER SERVICE INDIANAPOLIS IN
200 AM EST THU DEC 18 2014

NOTE: "FAIR" INDICATES FEW OR NO CLOUDS BELOW 12,000 FEET WITH NO
SIGNIFICANT WEATHER AND/OR OBSTRUCTIONS TO VISIBILITY.

* - STATION DOES NOT REPORT WEATHER SUCH AS PRECIPITATION OR FOG.

+ - STATION NOT QUALITY CONTROLLED BY THE NATIONAL WEATHER SERVICE.
    USE DATA WITH CAUTION...ESPECIALLY DEWPOINT AND RELATIVE
    HUMIDITY OBSERVATIONS.

INZ001>003-010>013-019-020-180800-
NORTHWEST INDIANA

CITY           SKY/WX    TMP DP  RH WIND       PRES   REMARKS
GARY /AIRPORT/ CLOUDY    27  17  66 W5        30.29F WCI  22
KNOX *+        CLOUDY    26  19  74 W7        30.26F WCI  18
LA PORTE +     CLOUDY    28  20  75 W6        30.27F WCI  21
MICHIGAN CITY+ CLOUDY    28  19  69 W6        30.27F WCI  22
MONTICELLO +   CLOUDY    25  19  78 NW3       30.27S
RENSSELAER +   CLOUDY    27  23  86 NW5       30.28S WCI  21
VALPARAISO     CLOUDY    24  17  74 W6        30.27F WCI  17

$$

LMZ046-743>745-180800-
SOUTHERN LAKE MICHIGAN

STATION/POSITION TIME  TEMP WIND        PRES
                       AIR  DIR/SP/G
                 (UTC) (F)  (DEG/KT/KT) (MB)

$$

INZ004-005-014>016-021>024-180800-
NORTH CENTRAL INDIANA

CITY           SKY/WX    TMP DP  RH WIND       PRES   REMARKS
GOSHEN         CLOUDY    27  21  78 W9        30.24F WCI  18
LOGANSPORT +   CLOUDY    25  19  80 W5        30.28S WCI  19
PERU/GRISSOM   CLOUDY    25  23  91 W5        30.26S WCI  20
ROCHESTER +    CLOUDY    30  25  80 W5        30.26F WCI  25
SOUTH BEND     CLOUDY    28  20  71 W7        30.25F WCI  21
WARSAW +       CLOUDY    27  21  80 W6        30.24F WCI  20

$$

INZ006>009-017-018-025>027-180800-
NORTHEAST INDIANA

CITY           SKY/WX    TMP DP  RH WIND       PRES   REMARKS
ANGOLA *+      CLOUDY    27  21  80 W6        30.21F WCI  20
AUBURN +       CLOUDY    28  21  74 W8        30.24F WCI  20
FORT WAYNE     CLOUDY    27  21  78 W8        30.25F WCI  19
HUNTINGTON +   CLOUDY    26  20  80 W3        30.25F

$$

INZ028-029-035-036-043>045-051>053-180800-
WEST CENTRAL INDIANA

CITY           SKY/WX    TMP DP  RH WIND       PRES   REMARKS
GREENCASTLE +  CLOUDY    25  16  68 CALM      30.29S
LAFAYETTE      CLOUDY    24  18  77 W5        30.30S WCI  18
TERRE HAUTE    CLOUDY    25  18  74 N3        30.31S

$$

INZ030>032-037>040-046>048-054>057-064-065-180800-
CENTRAL INDIANA

CITY           SKY/WX    TMP DP  RH WIND       PRES   REMARKS
CP ATTERBURY + CLOUDY    27  21  80 MISG      30.29F
FRANKFORT +    CLOUDY    26  20  79 W3        30.29S
INDIANAPOLIS   CLOUDY    24  18  77 N3        30.27F
-EAGLE CREEK   CLOUDY    25  18  74 N5        30.27F WCI  19
KOKOMO *+      CLOUDY    27  19  74 W6        30.27S WCI  20
MARION +       CLOUDY    25  22  86 W6        30.27S WCI  18
MT COMFORT *+  CLOUDY    25  14  63 NW5       30.28S WCI  19
SHELBYVILLE    CLOUDY    27  18  69 N5        30.28S WCI  22
ZIONSVILLE +   CLOUDY    26  18  73 NW7       30.28S WCI  18

$$

INZ033-034-041-042-049-050-058-059-180800-
EAST CENTRAL INDIANA

CITY           SKY/WX    TMP DP  RH WIND       PRES   REMARKS
MUNCIE         CLOUDY    26  19  74 NW5       30.26F WCI  20

$$

INZ060-061-067>069-081>083-085>088-180800-
SOUTHWEST INDIANA

CITY           SKY/WX    TMP DP  RH WIND       PRES   REMARKS
EVANSVILLE     CLOUDY    31  24  75 NE5       30.32R WCI  26
HUNTINGBURG *+ CLOUDY    28  21  74 N7        30.30S WCI  21
WASHINGTON +   CLOUDY    26  18  73 N6        30.31S WCI  19

$$

INZ062-063-066-070>080-084-089>092-180800-
SOUTH CENTRAL AND SOUTHEAST INDIANA

CITY           SKY/WX    TMP DP  RH WIND       PRES   REMARKS
BLOOMINGTON    CLOUDY    24  20  84 CALM      30.28F
NORTH VERNON + CLOUDY    27  21  80 N6        30.30  WCI  20
SEYMOUR +      CLOUDY    28  21  74 N7        30.30F WCI  21

$$




USA.gov is the U.S. government's official web portal to all federal, state and local government web resources and services.